| time (UTC) | temp F | wind direction | speed MPH | gust MPH | rain 1hr in | rain 24hr in | rain mn in | humidity % | barometer mb |
| 20260504220056 | 83 | 258 | 1.0 | 8.0 | 0.00 | 0.02 | 0.02 | 44 | 999.3 |
| 20260504214537 | 83 | 234 | 3.0 | 9.0 | 0.00 | 0.02 | 0.02 | 42 | 999.3 |
| 20260504213023 | 83 | 149 | 2.0 | 9.0 | 0.00 | 0.02 | 0.02 | 44 | 999.3 |
| 20260504211522 | 83 | 162 | 3.0 | 7.0 | 0.00 | 0.02 | 0.02 | 44 | 999.2 |
| 20260504210024 | 82 | 172 | 3.0 | 9.0 | 0.00 | 0.02 | 0.02 | 46 | 999.3 |
| 20260504204522 | 82 | 153 | 0.0 | 8.0 | 0.00 | 0.02 | 0.02 | 48 | 999.5 |
| 20260504203027 | 80 | 230 | 2.0 | 7.0 | 0.00 | 0.02 | 0.02 | 51 | 999.7 |
| 20260504201523 | 78 | 229 | 1.0 | 4.0 | 0.00 | 0.02 | 0.02 | 57 | 999.9 |
| 20260504200016 | 74 | 158 | 1.0 | 4.0 | 0.00 | 0.02 | 0.02 | 64 | 999.9 |
| 20260504194509 | 69 | 148 | 1.0 | 3.0 | 0.00 | 0.02 | 0.02 | 78 | 1000.1 |
| 20260504193007 | 66 | 143 | 0.0 | 3.0 | 0.00 | 0.02 | 0.02 | 85 | 1000.0 |
| 20260504191520 | 65 | 142 | 0.0 | 0.0 | 0.01 | 0.02 | 0.02 | 91 | 1001.0 |
| 20260504190008 | 64 | 139 | 0.0 | 2.0 | 0.02 | 0.02 | 0.02 | 90 | 1000.8 |
| 20260504184512 | 64 | 146 | 0.0 | 0.0 | 0.02 | 0.02 | 0.02 | 89 | 1001.5 |
| 20260504183110 | 65 | 146 | 0.0 | 0.0 | 0.02 | 0.02 | 0.02 | 86 | 1001.6 |
| 20260504181549 | 66 | 146 | 0.0 | 1.0 | 0.01 | 0.01 | 0.01 | 81 | 1001.6 |
| 20260504180024 | 69 | 146 | 0.0 | 1.0 | 0.00 | 0.00 | 0.00 | 73 | 1001.6 |
| 20260504174524 | 73 | 146 | 0.0 | 1.0 | 0.00 | 0.00 | 0.00 | 60 | 1001.7 |
| 20260504173027 | 73 | 148 | 0.0 | 1.0 | 0.00 | 0.00 | 0.00 | 55 | 1001.8 |
| 20260504171510 | 72 | 132 | 0.0 | 0.0 | 0.00 | 0.00 | 0.00 | 59 | 1002.1 |
| 20260504081527 | 56 | 359 | 0.0 | 0.0 | 0.00 | 0.00 | 0.00 | 81 | 1004.3 |
| 20260504050005 | 63 | 89 | 0.0 | 1.0 | 0.00 | 0.00 | 0.00 | 64 | 1004.8 |
| 20260504044517 | 63 | 89 | 0.0 | 0.0 | 0.00 | 0.00 | 0.00 | 65 | 1005.1 |
| 20260504043012 | 63 | 89 | 0.0 | 1.0 | 0.00 | 0.00 | 0.00 | 66 | 1005.4 |
| 20260504041508 | 64 | 4 | 0.0 | 0.0 | 0.00 | 0.00 | 0.00 | 65 | 1005.6 |
| 20260504040106 | 64 | 127 | 0.0 | 0.0 | 0.00 | 0.00 | 0.00 | 63 | 1005.7 |
| 20260504034508 | 65 | 127 | 0.0 | 2.0 | 0.00 | 0.00 | 0.00 | 63 | 1005.8 |
| 20260504033002 | 64 | 259 | 0.0 | 0.0 | 0.00 | 0.00 | 0.00 | 65 | 1006.1 |
| 20260504031506 | 64 | 259 | 0.0 | 0.0 | 0.00 | 0.00 | 0.00 | 63 | 1006.4 |
| 20260504030105 | 63 | 259 | 0.0 | 0.0 | 0.00 | 0.00 | 0.00 | 66 | 1006.1 |
| 20260504024511 | 64 | 259 | 0.0 | 0.0 | 0.00 | 0.00 | 0.00 | 65 | 1005.9 |
| 20260504023007 | 65 | 259 | 0.0 | 0.0 | 0.00 | 0.00 | 0.00 | 64 | 1005.8 |
| 20260504021504 | 66 | 259 | 0.0 | 0.0 | 0.00 | 0.00 | 0.00 | 59 | 1005.7 |
| 20260504020008 | 68 | 259 | 0.0 | 0.0 | 0.00 | 0.00 | 0.00 | 55 | 1005.6 |
| 20260504014517 | 69 | 259 | 0.0 | 0.0 | 0.00 | 0.00 | 0.00 | 53 | 1005.5 |
| 20260504013107 | 70 | 259 | 0.0 | 0.0 | 0.00 | 0.00 | 0.00 | 51 | 1005.4 |
| 20260504011501 | 71 | 259 | 0.0 | 0.0 | 0.00 | 0.00 | 0.00 | 49 | 1005.3 |
| 20260504010111 | 72 | 259 | 0.0 | 0.0 | 0.00 | 0.00 | 0.00 | 47 | 1005.2 |
| 20260504004511 | 73 | 259 | 0.0 | 0.0 | 0.00 | 0.00 | 0.00 | 45 | 1005.2 |
| 20260504003031 | 74 | 259 | 0.0 | 2.0 | 0.00 | 0.00 | 0.00 | 44 | 1005.2 |
| 20260504001528 | 75 | 164 | 0.0 | 1.0 | 0.00 | 0.00 | 0.00 | 42 | 1005.1 |
| 20260504000014 | 76 | 155 | 0.0 | 5.0 | 0.00 | 0.00 | 0.00 | 42 | 1005.2 |
| 20260503234536 | 77 | 163 | 0.0 | 4.0 | 0.00 | 0.00 | 0.00 | 40 | 1005.3 |
| 20260503233017 | 77 | 155 | 0.0 | 5.0 | 0.00 | 0.00 | 0.00 | 39 | 1005.4 |
| 20260503231514 | 78 | 160 | 0.0 | 4.0 | 0.00 | 0.00 | 0.00 | 39 | 1005.4 |
| 20260503230020 | 78 | 172 | 3.0 | 6.0 | 0.00 | 0.00 | 0.00 | 37 | 1005.6 |
| 20260503224525 | 78 | 276 | 1.0 | 7.0 | 0.00 | 0.00 | 0.00 | 36 | 1005.8 |
| 20260503223008 | 79 | 205 | 1.0 | 4.0 | 0.00 | 0.00 | 0.00 | 36 | 1005.8 |
| 20260503221522 | 79 | 193 | 3.0 | 7.0 | 0.00 | 0.00 | 0.00 | 34 | 1005.9 |